Location: Bannatyne
(13.0833°N, 59.5333°W)
Time: 00:19:40
(UTC+00:00)

Transit 2A - Pass Details

Date: 31 January 2020
Orbit: 599 x 959 km, 66.7° (Epoch: 25 February)

Event Time Altitude Azimuth Distance (km) Brightness Sun altitude
Rises 21:01:14 0° 198° (SSW) 3,082 9.7 12.3°
Reaches altitude 10° 21:03:39 10° 197° (SSW) 2,112 8.9 11.8°
Maximum altitude 21:08:23 80° 111° (ESE) 651 5.8 10.7°
Drops below altitude 10° 21:12:46 10° 24° (NNE) 1,965 7.8 9.7°
Sets 21:14:58 0° 23° (NNE) 2,849 8.6 9.2°
